Weather History for Poughkeepsie, NY

Change the Weather History Date:

Saturday, September 20, 2014

  Actual Average Record
Temperature  
Mean Temperature 63 °F 61 °F  
Max Temperature 75 °F 74 °F 92 °F (1983)
Min Temperature 50 °F 49 °F 34 °F (1979)
Degree Days  
Heating Degree Days 2 5  
Month to date heating degree days 60 56  
Since 1 July heating degree days 65 73  
Cooling Degree Days 0 0  
Month to date cooling degree days 73 56  
Year to date cooling degree days 670 660  
Growing Degree Days 12 (Base 50)    
Moisture  
Dew Point 53 °F    
Average Humidity 73    
Maximum Humidity 93    
Minimum Humidity 52    
Precipitation  
Precipitation 0.00 in 0.14 in 1.16 in (1963)
Month to date precipitation 0.50 2.78  
Year to date precipitation 25.17 33.56  
Sea Level Pressure  
Sea Level Pressure 30.20 in    
Wind  
Wind Speed 4 mph (SSE)    
Max Wind Speed 12 mph    
Max Gust Speed 22 mph    
Visibility 10 miles    
Events      
T = Trace of Precipitation, MM = Missing Value Source: NWS Daily Summary

Daily Weather History Graph

Daily Weather History Graph

Search for Another Location

Airport:

Trip Planner

Search our weather history database for the weather conditions in past years. The results will help you decide how hot, cold, wet, or windy it might be!

Date:

Astronomy

Sep. 20, 2014 Rise Set
Actual Time 6:40 AM EDT 6:56 PM EDT
Civil Twilight 6:13 AM EDT 7:23 PM EDT
Nautical Twilight 5:40 AM EDT 7:56 PM EDT
Astronomical Twilight 5:07 AM EDT 8:29 PM EDT
Moon 3:15 AM EDT (9/20) 5:00 PM EDT (9/20)
Length of Visible Light 13h 10m
Length of Day
12h 15m
Waning Crescent, 11% of the Moon is Illuminated
Sep 20
Waning Crescent
Sep 24
New
Oct 1
First Quarter
Oct 8
Full
Oct 15
Last Quarter

Hourly Weather History & Observations

Time (EDT) Temp. Dew Point Humidity Pressure Visibility Wind Dir Wind Speed Gust Speed Precip Events Conditions
12:53 AM 54.0 °F 45.0 °F 72% 30.32 in 10.0 mi Variable 3.5 mph - N/A   Clear
1:53 AM 51.1 °F 45.0 °F 80% 30.33 in 10.0 mi North 3.5 mph - N/A   Mostly Cloudy
2:53 AM 51.1 °F 46.0 °F 83% 30.32 in 10.0 mi Calm Calm - N/A   Mostly Cloudy
3:53 AM 52.0 °F 46.9 °F 83% 30.32 in 10.0 mi NW 3.5 mph - N/A   Overcast
4:53 AM 53.1 °F 48.0 °F 83% 30.30 in 10.0 mi Calm Calm - N/A   Overcast
5:53 AM 53.1 °F 48.0 °F 83% 30.29 in 10.0 mi SSE 6.9 mph - N/A   Mostly Cloudy
6:53 AM 53.1 °F 48.9 °F 86% 30.29 in 10.0 mi South 4.6 mph - N/A   Scattered Clouds
7:53 AM 55.9 °F 51.1 °F 84% 30.28 in 10.0 mi SE 3.5 mph - N/A   Partly Cloudy
8:53 AM 62.1 °F 52.0 °F 70% 30.27 in 10.0 mi Variable 3.5 mph - N/A   Clear
9:53 AM 64.0 °F 54.0 °F 70% 30.27 in 10.0 mi SW 5.8 mph - N/A   Overcast
10:07 AM 64.0 °F 54.0 °F 70% 30.27 in 10.0 mi Variable 3.5 mph - N/A   Overcast
10:53 AM 66.0 °F 55.0 °F 68% 30.25 in 10.0 mi South 5.8 mph - N/A   Overcast
11:53 AM 69.1 °F 55.9 °F 63% 30.23 in 10.0 mi South 8.1 mph - N/A   Overcast
12:53 PM 72.0 °F 55.9 °F 57% 30.20 in 10.0 mi South 11.5 mph 19.6 mph N/A   Overcast
1:53 PM 73.9 °F 55.0 °F 52% 30.15 in 10.0 mi South 6.9 mph 21.9 mph N/A   Clear
2:53 PM 73.0 °F 55.9 °F 55% 30.14 in 10.0 mi South 8.1 mph - N/A   Overcast
3:53 PM 73.9 °F 55.9 °F 53% 30.12 in 10.0 mi South 8.1 mph - N/A   Overcast
5:53 PM 73.0 °F 57.0 °F 57% 30.09 in 10.0 mi South 8.1 mph 17.3 mph N/A   Clear
6:53 PM 69.1 °F 57.9 °F 68% 30.08 in 10.0 mi SSE 3.5 mph - N/A   Clear
7:53 PM 66.0 °F 57.0 °F 73% 30.08 in 10.0 mi SE 3.5 mph - N/A   Clear
8:53 PM 63.0 °F 55.9 °F 78% 30.09 in 10.0 mi Calm Calm - N/A   Clear
9:53 PM 64.0 °F 57.9 °F 80% 30.07 in 10.0 mi SE 3.5 mph - N/A   Partly Cloudy
10:09 PM 62.1 °F 57.0 °F 84% 30.08 in 10.0 mi SE 3.5 mph - N/A   Mostly Cloudy
10:53 PM 61.0 °F 57.0 °F 87% 30.06 in 10.0 mi Calm Calm - N/A   Partly Cloudy
11:53 PM 61.0 °F 59.0 °F 93% 30.05 in 10.0 mi SSE 3.5 mph - N/A   Clear